• în Republica Moldova
  • Lista ţărilor
  • Pe 7 zile
  • Temperatura apei
  • Hartă satelitară
  • Meteo pe hartă
  • Widget-uri
  • user-avatar
    Intrare

    Meteo pe oră la Vlorë

    Astăzi, 21 Ianuarie, Sâmbătă

    Timp Temperatura Precipitaţii Vânt Presiune Umiditate
    00:00 +4°C° 0 mm 4 m/s 771 mmHg 76%
    01:00 +4°C° 0 mm 3 m/s 771 mmHg 76%
    02:00 +4°C° 0 mm 4 m/s 771 mmHg 75%
    03:00 +4°C° 0 mm 4 m/s 771 mmHg 74%
    04:00 +4°C° 0 mm 4 m/s 771 mmHg 73%
    05:00 +4°C° 0 mm 4 m/s 771 mmHg 73%
    06:00 +4°C° 0 mm 3 m/s 771 mmHg 72%
    07:00 +4°C° 0 mm 4 m/s 771 mmHg 72%
    08:00 +5°C° 0 mm 3 m/s 771 mmHg 68%
    09:00 +8°C° 0 mm 3 m/s 771 mmHg 63%
    10:00 +10°C° 0 mm 3 m/s 771 mmHg 58%
    11:00 +12°C° 0 mm 2 m/s 771 mmHg 56%
    12:00 +12°C° 0 mm 2 m/s 771 mmHg 54%
    13:00 +13°C° 0 mm 2 m/s 770 mmHg 51%
    14:00 +13°C° 0 mm 1 m/s 770 mmHg 57%
    15:00 +12°C° 0 mm 1 m/s 770 mmHg 62%
    16:00 +11°C° 0 mm 1 m/s 770 mmHg 68%
    17:00 +10°C° 0 mm 1 m/s 770 mmHg 70%
    18:00 +8°C° 0 mm 2 m/s 770 mmHg 72%
    19:00 +7°C° 0 mm 2 m/s 770 mmHg 74%
    20:00 +7°C° 0 mm 2 m/s 770 mmHg 76%
    21:00 +7°C° 0 mm 2 m/s 770 mmHg 77%
    22:00 +6°C° 0 mm 2 m/s 770 mmHg 78%
    23:00 +6°C° 0 mm 2 m/s 770 mmHg 77%

    Mâine, 22 Ianuarie, Duminică

    Timp Temperatura Precipitaţii Vânt Presiune Umiditate
    00:00 +5°C° 0 mm 3 m/s 770 mmHg 77%
    01:00 +5°C° 0 mm 3 m/s 770 mmHg 76%
    02:00 +5°C° 0 mm 3 m/s 770 mmHg 75%
    03:00 +5°C° 0 mm 3 m/s 770 mmHg 75%
    04:00 +4°C° 0 mm 3 m/s 770 mmHg 74%
    05:00 +4°C° 0 mm 3 m/s 770 mmHg 74%
    06:00 +4°C° 0 mm 3 m/s 770 mmHg 73%
    07:00 +4°C° 0 mm 3 m/s 770 mmHg 73%
    08:00 +7°C° 0 mm 3 m/s 770 mmHg 69%
    09:00 +8°C° 0 mm 3 m/s 771 mmHg 65%
    10:00 +10°C° 0 mm 4 m/s 771 mmHg 61%
    11:00 +11°C° 0 mm 3 m/s 770 mmHg 58%
    12:00 +12°C° 0 mm 3 m/s 770 mmHg 55%
    13:00 +14°C° 0 mm 2 m/s 770 mmHg 52%
    14:00 +13°C° 0 mm 2 m/s 769 mmHg 57%
    15:00 +12°C° 0 mm 2 m/s 769 mmHg 62%
    16:00 +12°C° 0 mm 2 m/s 769 mmHg 67%
    17:00 +10°C° 0 mm 2 m/s 769 mmHg 69%
    18:00 +9°C° 0 mm 3 m/s 770 mmHg 71%
    19:00 +8°C° 0 mm 3 m/s 770 mmHg 73%
    20:00 +8°C° 0 mm 3 m/s 770 mmHg 73%
    21:00 +6°C° 0 mm 4 m/s 770 mmHg 74%
    22:00 +6°C° 0 mm 4 m/s 770 mmHg 75%
    23:00 +6°C° 0 mm 4 m/s 769 mmHg 75%

    Poimâine, 23 Ianuarie, Luni

    Timp Temperatura Precipitaţii Vânt Presiune Umiditate
    00:00 +5°C° 0 mm 4 m/s 769 mmHg 74%
    01:00 +5°C° 0 mm 5 m/s 769 mmHg 74%
    02:00 +5°C° 0 mm 5 m/s 768 mmHg 74%
    03:00 +5°C° 0 mm 5 m/s 768 mmHg 74%
    04:00 +3°C° 0 mm 5 m/s 767 mmHg 73%
    05:00 +3°C° 0 mm 5 m/s 767 mmHg 73%
    06:00 +3°C° 0 mm 5 m/s 767 mmHg 73%
    07:00 +3°C° 0 mm 5 m/s 767 mmHg 73%
    08:00 +5°C° 0 mm 5 m/s 767 mmHg 69%
    09:00 +7°C° 0 mm 5 m/s 767 mmHg 66%
    10:00 +8°C° 0 mm 5 m/s 767 mmHg 63%
    11:00 +9°C° 0 mm 5 m/s 766 mmHg 62%
    12:00 +9°C° 0 mm 6 m/s 765 mmHg 62%
    13:00 +10°C° 0 mm 6 m/s 765 mmHg 61%
    14:00 +9°C° 0,3 mm 6 m/s 764 mmHg 65%
    15:00 +9°C° 0,3 mm 6 m/s 763 mmHg 69%
    16:00 +8°C° 0,3 mm 6 m/s 763 mmHg 72%
    17:00 +8°C° 1,2 mm 6 m/s 763 mmHg 76%
    18:00 +7°C° 1,2 mm 6 m/s 762 mmHg 79%
    19:00 +5°C° 1,2 mm 6 m/s 762 mmHg 82%
    20:00 +5°C° 1,3 mm 6 m/s 762 mmHg 84%
    21:00 +5°C° 1,3 mm 7 m/s 762 mmHg 86%
    22:00 +5°C° 1,3 mm 7 m/s 762 mmHg 89%
    23:00 +5°C° 1,8 mm 7 m/s 761 mmHg 89%

    24 Ianuarie, Marţi

    Timp Temperatura Precipitaţii Vânt Presiune Umiditate
    00:00 +5°C° 1,8 mm 7 m/s 761 mmHg 90%
    01:00 +5°C° 1,8 mm 6 m/s 761 mmHg 91%
    02:00 +5°C° 1,9 mm 6 m/s 760 mmHg 91%
    03:00 +5°C° 1,9 mm 6 m/s 760 mmHg 91%
    04:00 +6°C° 1,9 mm 5 m/s 760 mmHg 92%
    05:00 +6°C° 0,3 mm 5 m/s 760 mmHg 90%
    06:00 +6°C° 0,3 mm 5 m/s 760 mmHg 88%
    07:00 +6°C° 0,3 mm 5 m/s 760 mmHg 86%
    08:00 +7°C° 0 mm 5 m/s 760 mmHg 84%
    09:00 +7°C° 0 mm 5 m/s 760 mmHg 83%
    10:00 +8°C° 0 mm 4 m/s 760 mmHg 81%
    11:00 +8°C° 0 mm 4 m/s 760 mmHg 79%
    12:00 +10°C° 0 mm 4 m/s 760 mmHg 78%
    13:00 +10°C° 0 mm 4 m/s 760 mmHg 77%
    14:00 +10°C° 0,1 mm 4 m/s 760 mmHg 78%
    15:00 +10°C° 0,1 mm 4 m/s 760 mmHg 79%
    16:00 +10°C° 0,1 mm 4 m/s 759 mmHg 80%
    17:00 +8°C° 0 mm 4 m/s 760 mmHg 81%
    18:00 +7°C° 0 mm 4 m/s 760 mmHg 82%
    19:00 +6°C° 0 mm 4 m/s 760 mmHg 83%
    20:00 +6°C° 0 mm 4 m/s 760 mmHg 82%
    21:00 +6°C° 0 mm 4 m/s 760 mmHg 82%
    22:00 +7°C° 0 mm 3 m/s 760 mmHg 81%
    23:00 +7°C° 0 mm 3 m/s 760 mmHg 82%

    25 Ianuarie, Miercuri

    Timp Temperatura Precipitaţii Vânt Presiune Umiditate
    00:00 +7°C° 0 mm 3 m/s 760 mmHg 82%
    01:00 +7°C° 0 mm 3 m/s 760 mmHg 82%
    02:00 +5°C° 0 mm 3 m/s 760 mmHg 82%
    03:00 +5°C° 0 mm 3 m/s 760 mmHg 82%
    04:00 +5°C° 0 mm 3 m/s 760 mmHg 82%
    05:00 +5°C° 0 mm 3 m/s 761 mmHg 82%
    06:00 +5°C° 0 mm 3 m/s 761 mmHg 81%
    07:00 +5°C° 0 mm 3 m/s 761 mmHg 80%
    08:00 +7°C° 0 mm 3 m/s 762 mmHg 77%
    09:00 +9°C° 0 mm 3 m/s 763 mmHg 74%
    10:00 +10°C° 0 mm 3 m/s 763 mmHg 70%
    11:00 +11°C° 0 mm 3 m/s 763 mmHg 68%
    12:00 +12°C° 0 mm 3 m/s 763 mmHg 66%
    13:00 +12°C° 0 mm 3 m/s 763 mmHg 63%
    14:00 +12°C° 0 mm 4 m/s 763 mmHg 67%
    15:00 +11°C° 0 mm 4 m/s 763 mmHg 71%
    16:00 +11°C° 0 mm 4 m/s 763 mmHg 74%
    17:00 +9°C° 0 mm 5 m/s 764 mmHg 76%
    18:00 +7°C° 0 mm 5 m/s 764 mmHg 78%
    19:00 +6°C° 0 mm 5 m/s 765 mmHg 80%
    20:00 +6°C° 0 mm 5 m/s 765 mmHg 80%
    21:00 +6°C° 0 mm 5 m/s 765 mmHg 80%
    22:00 +5°C° 0 mm 5 m/s 766 mmHg 80%
    23:00 +5°C° 0 mm 5 m/s 766 mmHg 79%

    26 Ianuarie, Joi

    Timp Temperatura Precipitaţii Vânt Presiune Umiditate
    00:00 +5°C° 0 mm 5 m/s 766 mmHg 79%
    01:00 +5°C° 0 mm 5 m/s 766 mmHg 79%
    02:00 +3°C° 0 mm 5 m/s 766 mmHg 78%
    03:00 +3°C° 0 mm 5 m/s 766 mmHg 78%
    04:00 +3°C° 0 mm 5 m/s 766 mmHg 78%
    05:00 +4°C° 0 mm 4 m/s 767 mmHg 78%
    06:00 +4°C° 0 mm 4 m/s 767 mmHg 77%
    07:00 +3°C° 0 mm 4 m/s 767 mmHg 77%
    08:00 +4°C° 0,1 mm 4 m/s 768 mmHg 74%
    09:00 +5°C° 0,1 mm 4 m/s 768 mmHg 71%
    10:00 +6°C° 0,1 mm 4 m/s 768 mmHg 67%
    11:00 +7°C° 0 mm 4 m/s 768 mmHg 65%
    12:00 +8°C° 0 mm 4 m/s 768 mmHg 63%
    13:00 +8°C° 0 mm 4 m/s 768 mmHg 61%
    14:00 +8°C° 0 mm 4 m/s 768 mmHg 64%
    15:00 +8°C° 0 mm 4 m/s 768 mmHg 66%
    16:00 +8°C° 0 mm 4 m/s 768 mmHg 69%
    17:00 +6°C° 0 mm 4 m/s 769 mmHg 71%
    18:00 +5°C° 0 mm 4 m/s 769 mmHg 73%
    19:00 +4°C° 0 mm 4 m/s 770 mmHg 75%
    20:00 +4°C° 0 mm 4 m/s 770 mmHg 75%
    21:00 +3°C° 0 mm 4 m/s 770 mmHg 76%
    22:00 +3°C° 0 mm 4 m/s 770 mmHg 77%
    23:00 +3°C° 0 mm 4 m/s 771 mmHg 76%
    Arată mai mult